Regional Weather Roundup
Issued by NWS Cleveland, OH

Home | Current Version | Previous Version | Text Only | Print | Product List | Glossary Off
Versions: 1 2 3 4 5 6 7 8 9 10 11 12 13 14 15 16 17 18 19 20 21 22 23 24 25 26 27 28 29 30 31 32 33 34 35 36 37 38 39 40 41 42 43 44 45 46 47 48 49 50

000
ASUS41 KCLE 292210
RWRCLE
OHIO REGIONAL WEATHER ROUNDUP
NATIONAL WEATHER SERVICE WILMINGTON, OH
600 PM EDT SAT AUG 29 2015

NOTE: "FAIR" INDICATES FEW OR NO CLOUDS BELOW 12,000 FEET WITH NO
SIGNIFICANT WEATHER AND/OR OBSTRUCTIONS TO VISIBILITY.

OHZ001>008-015>018-024>027-034-035-043-044-292300-
   NORTHWEST OHIO

CITY           SKY/WX    TMP DP  RH WIND       PRES   REMARKS
DEFIANCE       LGT RAIN  74  68  81 CALM      30.05F
FINDLAY        CLOUDY    80  68  66 W5        30.04S
TOLEDO EXPRESS LGT RAIN  75  68  78 N3        30.05S
TOLEDO EXEC    CLOUDY    79  65  62 CALM      30.05F
LIMA           PTSUNNY   79  67  66 W5        30.06S
$$

OHZ009>014-019>023-028>033-038-089-292300-
   NORTHEAST OHIO

CITY           SKY/WX    TMP DP  RH WIND       PRES   REMARKS
CLE-HOPKINS    MOSUNNY   82  62  50 W5        30.07F
CLE-LAKEFRONT  CLOUDY    77  66  68 NE7       30.04F
CUY CO. ARPT   MOSUNNY   82  63  51 SE7       30.07F
LORAIN-ELYRIA  PTSUNNY   81  64  56 SW6       30.06F
ASHTABULA      MOSUNNY   80  59  48 CALM      30.08F
AKRON-CANTON   PTSUNNY   83  61  47 SW9       30.08F
WOOSTER        PTSUNNY   80  63  55 SW7       30.08F
MANSFIELD      PTSUNNY   81  62  52 SW10      30.09S
YOUNGSTOWN     MOSUNNY   79  61  53 S5        30.09F
$$

OHZ042-051>053-060>062-070>072-077>081-292300-
  SOUTHWEST OHIO

CITY           SKY/WX    TMP DP  RH WIND       PRES   REMARKS
CINC-COVINGTON PTSUNNY   74  70  87 S3        30.06F
CINC-LUNKEN    LGT RAIN  78  68  71 SW6       30.06S
HAMILTON       PTSUNNY   86  65  49 VRB3      30.05F
DAYTON         PTSUNNY   83  65  54 SW8       30.07F
WRIGHT-PAT AFB PTSUNNY   83  65  54 S18G28    30.07R
DAYTON GENERAL MOSUNNY   76  64  66 SE9       30.07S
WILMINGTON     LGT RAIN  74  67  78 NW9       30.08S
$$

OHZ036-037-039>041-045>050-054>059-063>069-073>076-082>088-292300-
  CENTRAL AND SOUTHEAST OHIO

CITY           SKY/WX    TMP DP  RH WIND       PRES   REMARKS
COLUMBUS       PTSUNNY   84  61  45 SW8       30.05F
OSU AIRPORT    PTSUNNY   82  65  56 W9        30.06F
BOLTON FIELD   PTSUNNY   82  68  61 CALM      30.06F
RICKENBACK AFB PTSUNNY   85  63  47 SW12      30.05F
NEWARK         MOSUNNY   83  64  52 SW6       30.06F
MARION         PTSUNNY   81  63  54 SW8       30.07F
LANCASTER      MOSUNNY   84  64  50 SW9       30.07F
ZANESVILLE     MOSUNNY   86  59  39 SW8       30.06F
NEW PHILLY     CLOUDY    80  64  58 NW7       30.08S
$$


USA.gov is the U.S. government's official web portal to all federal, state and local government web resources and services.